Weather History for KCYS - February, 2012

Change the Weather History Date:

Sunday, February 26, 2012

  Actual Average Record
Temperature  
Mean Temperature 20 °F 32 °F  
Max Temperature 30 °F 43 °F 70 °F (1950)
Min Temperature 10 °F 20 °F -13 °F (1890)
Degree Days  
Heating Degree Days 45 33  
Month to date heating degree days 1035 928  
Since 1 July heating degree days 4877 4955  
Cooling Degree Days 0 0  
Month to date cooling degree days 0 0  
Year to date cooling degree days 0 0  
Moisture  
Dew Point -1 °F    
Average Humidity 41    
Maximum Humidity 61    
Minimum Humidity 21    
Precipitation  
Precipitation 0.00 in 0.02 in 0.56 in (1987)
Month to date precipitation 0.86 0.43  
Year to date precipitation 0.99 0.76  
Snow  
Snow 0.00 in 0.30 in 6.40 in (1987)
Month to date snowfall 13.4 7.3  
Since 1 July snowfall 50.8 35.9  
Snow Depth 0.00 in    
Sea Level Pressure  
Sea Level Pressure 30.08 in    
Wind  
Wind Speed 21 mph (West)    
Max Wind Speed 44 mph    
Max Gust Speed 58 mph    
Visibility 10 miles    
Events      
T = Trace of Precipitation, MM = Missing Value Source: NWS Daily Summary

Daily Weather History Graph

Daily Weather History Graph

Search for Another Location

Airport or City:

Trip Planner

Search our weather history database for the weather conditions in past years. The results will help you decide how hot, cold, wet, or windy it might be!

Date:

Astronomy

Feb. 26, 2012 Rise Set
Actual Time 6:38 AM MST 5:46 PM MST
Civil Twilight 6:11 AM MST 6:13 PM MST
Nautical Twilight 5:39 AM MST 6:45 PM MST
Astronomical Twilight 5:07 AM MST 7:17 PM MST
Moon 8:31 AM MST (2/26) 10:49 PM MST (2/26)
Length of Visible Light 12h 02m
Length of Day
11h 07m
Waxing Crescent, 21% of the Moon is Illuminated
Feb 26
Waxing Crescent
Feb 29
First Quarter
Mar 8
Full
Mar 14
Last Quarter
Mar 22
New

Hourly Weather History & Observations

Time (MST) Temp. Windchill Dew Point Humidity Pressure Visibility Wind Dir Wind Speed Gust Speed Precip Events Conditions
12:53 AM 21.9 °F 6.9 °F -4.0 °F 32% 29.81 in 10.0 mi West 19.6 mph 26.5 mph N/A   Clear
1:53 AM 21.0 °F 5.7 °F -2.9 °F 35% 29.84 in 10.0 mi WSW 19.6 mph - N/A   Clear
2:53 AM 19.9 °F 3.2 °F -2.0 °F 38% 29.86 in 10.0 mi WSW 23.0 mph 32.2 mph N/A   Clear
3:53 AM 19.0 °F 3.2 °F -0.9 °F 42% 29.88 in 10.0 mi WSW 19.6 mph 26.5 mph N/A   Clear
4:53 AM 19.4 °F 2.8 °F -0.4 °F 42% 29.85 in 10.0 mi West 21.9 mph 35.7 mph N/A   Clear
5:53 AM 18.0 °F -1.7 °F -0.9 °F 44% 29.98 in 10.0 mi West 31.1 mph 43.7 mph N/A   Clear
6:53 AM 19.0 °F 1.0 °F -2.0 °F 40% 29.98 in 10.0 mi West 26.5 mph 46.0 mph N/A   Clear
7:53 AM 19.9 °F 1.5 °F -0.9 °F 40% 30.00 in 10.0 mi West 28.8 mph 43.7 mph N/A   Clear
8:53 AM 23.0 °F 3.0 °F -0.9 °F 35% 30.01 in 10.0 mi West 41.4 mph 50.6 mph N/A   Clear
9:53 AM 25.0 °F 6.0 °F -2.0 °F 31% 30.04 in 10.0 mi West 40.3 mph 52.9 mph N/A   Clear
10:53 AM 27.0 °F 8.4 °F -2.9 °F 27% 30.06 in 10.0 mi West 42.6 mph 54.1 mph N/A   Clear
11:53 AM 28.0 °F 11.3 °F -2.0 °F 27% 30.09 in 10.0 mi West 34.5 mph 44.9 mph N/A   Clear
12:53 PM 28.9 °F 12.8 °F -2.0 °F 26% 30.07 in 10.0 mi West 33.4 mph 50.6 mph N/A   Clear
1:53 PM 30.0 °F 14.9 °F -2.9 °F 24% 30.08 in 10.0 mi West 29.9 mph 39.1 mph N/A   Clear
2:53 PM 30.0 °F 14.9 °F -5.1 °F 22% 30.09 in 10.0 mi West 29.9 mph 41.4 mph N/A   Clear
3:53 PM 28.9 °F 15.4 °F -5.1 °F 23% 30.14 in 10.0 mi WNW 21.9 mph 36.8 mph N/A   Clear
4:53 PM 28.9 °F 16.5 °F -4.0 °F 24% 30.16 in 10.0 mi WNW 18.4 mph 27.6 mph N/A   Clear
5:53 PM 25.0 °F 16.3 °F 1.9 °F 37% 30.21 in 10.0 mi North 8.1 mph - N/A   Clear
6:53 PM 23.0 °F - 3.0 °F 42% 30.24 in 10.0 mi Calm Calm - N/A   Clear
7:53 PM 17.1 °F 6.6 °F 5.0 °F 59% 30.29 in 10.0 mi East 8.1 mph - N/A   Clear
8:53 PM 16.0 °F 8.8 °F 5.0 °F 62% 30.30 in 10.0 mi ENE 4.6 mph - N/A   Clear
9:53 PM 18.0 °F - 3.9 °F 54% 30.28 in 10.0 mi Calm Calm - N/A   Clear
10:53 PM 18.0 °F - 3.0 °F 52% 30.29 in 10.0 mi Calm Calm - N/A   Clear
11:53 PM 10.0 °F -0.9 °F 3.0 °F 73% 30.32 in 10.0 mi WSW 6.9 mph - N/A   Clear